Location: Piotrkow Trybunalski
(51.4000°N, 19.6830°E)
Time: 14:18:22
(UTC+01:00)

Vanguard 2 - Pass Details

Date: 10 February 2023
Orbit: 553 x 2927 km, 32.9° (Epoch: 24 March)

Event Time Altitude Azimuth Distance (km) Brightness Sun altitude
Rises 01:42:14 0° 268° (W) 6,196 - -47.3°
Reaches altitude 10° 01:47:49 10° 253° (WSW) 5,470 - -46.8°
Maximum altitude 01:58:06 20° 216° (SW) 4,943 - -45.7°
Drops below altitude 10° 02:08:46 10° 178° (S) 5,656 - -44.4°
Exits shadow 02:13:51 - 165° (SSE) 6,322 12.0 -43.8°
Sets 02:14:48 0° 163° (SSE) 6,463 12.1 -43.7°
